| time (UTC) | temp F | wind direction | speed knots | gust knots | rain 1hr in | rain 24hr in | rain mn in | humidity % | barometer mb |
| 20260504192005 | 80 | 233 | 3.5 | 7.8 | 0.00 | 0.03 | 0.03 | 43 | 1000.3 |
| 20260504191506 | 80 | 216 | 3.5 | 8.7 | 0.00 | 0.03 | 0.03 | 47 | 1000.3 |
| 20260504191005 | 80 | 205 | 5.2 | 8.7 | 0.00 | 0.03 | 0.03 | 42 | 1000.3 |
| 20260504190520 | 80 | 218 | 3.5 | 7.8 | 0.00 | 0.03 | 0.03 | 45 | 1000.3 |
| 20260504190005 | 79 | 222 | 2.6 | 8.7 | 0.00 | 0.03 | 0.03 | 44 | 1000.3 |
| 20260504185505 | 79 | 234 | 4.3 | 8.7 | 0.00 | 0.03 | 0.03 | 47 | 1000.4 |
| 20260504185008 | 79 | 195 | 6.1 | 8.7 | 0.00 | 0.03 | 0.03 | 44 | 1000.5 |
| 20260504184506 | 79 | 219 | 5.2 | 8.7 | 0.00 | 0.03 | 0.03 | 45 | 1000.4 |
| 20260504184009 | 79 | 150 | 2.6 | 7.0 | 0.00 | 0.03 | 0.03 | 44 | 1000.5 |
| 20260504183505 | 78 | 230 | 1.7 | 7.0 | 0.00 | 0.03 | 0.03 | 47 | 1000.6 |
| 20260504183005 | 78 | 202 | 1.7 | 11.3 | 0.00 | 0.03 | 0.03 | 47 | 1000.6 |
| 20260504182505 | 78 | 228 | 8.7 | 11.3 | 0.00 | 0.03 | 0.03 | 45 | 1000.6 |
| 20260504182005 | 78 | 151 | 5.2 | 7.0 | 0.00 | 0.03 | 0.03 | 45 | 1000.6 |
| 20260504181505 | 78 | 209 | 5.2 | 7.0 | 0.00 | 0.03 | 0.03 | 48 | 1000.7 |
| 20260504181005 | 77 | 201 | 2.6 | 5.2 | 0.00 | 0.03 | 0.03 | 50 | 1000.7 |
| 20260504180505 | 77 | 241 | 5.2 | 10.4 | 0.00 | 0.03 | 0.03 | 47 | 1000.7 |
| 20260504180005 | 77 | 188 | 5.2 | 7.8 | 0.00 | 0.03 | 0.03 | 48 | 1000.7 |
| 20260504175505 | 76 | 160 | 3.5 | 6.1 | 0.00 | 0.03 | 0.03 | 48 | 1000.8 |
| 20260504175005 | 76 | 200 | 5.2 | 7.8 | 0.00 | 0.03 | 0.03 | 48 | 1000.9 |
| 20260504174504 | 76 | 220 | 6.1 | 10.4 | 0.00 | 0.03 | 0.03 | 49 | 1000.9 |
| 20260504174005 | 76 | 216 | 5.2 | 11.3 | 0.00 | 0.03 | 0.03 | 46 | 1001.0 |
| 20260504173505 | 76 | 194 | 6.1 | 7.0 | 0.00 | 0.03 | 0.03 | 48 | 1001.0 |
| 20260504173024 | 76 | 224 | 4.3 | 6.1 | 0.00 | 0.03 | 0.03 | 49 | 1001.0 |
| 20260504172505 | 76 | 167 | 6.1 | 8.7 | 0.00 | 0.03 | 0.03 | 49 | 1001.0 |
| 20260504172006 | 76 | 166 | 6.1 | 7.0 | 0.00 | 0.03 | 0.03 | 48 | 1001.0 |
| 20260504171518 | 75 | 232 | 4.3 | 7.8 | 0.00 | 0.03 | 0.03 | 48 | 1001.1 |
| 20260504171005 | 75 | 202 | 5.2 | 7.8 | 0.00 | 0.03 | 0.03 | 49 | 1001.2 |
| 20260504170509 | 75 | 242 | 2.6 | 6.1 | 0.00 | 0.03 | 0.03 | 49 | 1001.3 |
| 20260504151005 | 69 | 184 | 6.1 | 7.0 | 0.00 | 0.03 | 0.03 | 55 | 1001.5 |
| 20260504150505 | 69 | 232 | 3.5 | 11.3 | 0.00 | 0.03 | 0.03 | 56 | 1001.5 |
| 20260504141005 | 65 | 158 | 6.1 | 7.0 | 0.00 | 0.03 | 0.03 | 60 | 1002.0 |
| 20260504140504 | 65 | 190 | 4.3 | 6.1 | 0.00 | 0.03 | 0.03 | 60 | 1002.0 |
| 20260504130505 | 61 | 163 | 4.3 | 5.2 | 0.00 | 0.03 | 0.03 | 71 | 1002.3 |
| 20260504110506 | 54 | 144 | 1.7 | 1.7 | 0.00 | 0.03 | 0.03 | 83 | 1002.3 |
| 20260504100505 | 55 | 132 | 0.9 | 0.9 | 0.00 | 0.03 | 0.03 | 78 | 1003.1 |
| 20260504082005 | 56 | 164 | 0.0 | 0.0 | 0.00 | 0.03 | 0.03 | 82 | 1004.5 |
| 20260504081505 | 56 | 164 | 0.0 | 0.0 | 0.00 | 0.03 | 0.03 | 82 | 1004.4 |
| 20260504081005 | 56 | 164 | 0.0 | 0.0 | 0.00 | 0.03 | 0.03 | 81 | 1004.6 |
| 20260504080505 | 56 | 164 | 0.0 | 0.0 | 0.00 | 0.03 | 0.03 | 80 | 1004.6 |
| 20260504050505 | 59 | 210 | 0.0 | 1.7 | 0.00 | 0.00 | 0.00 | 65 | 1006.8 |
| 20260504050015 | 59 | 210 | 0.0 | 0.0 | 0.00 | 0.00 | 0.00 | 65 | 1006.7 |
| 20260504045505 | 59 | 210 | 0.0 | 0.0 | 0.00 | 0.00 | 0.00 | 65 | 1006.7 |
| 20260504045008 | 59 | 210 | 0.0 | 0.0 | 0.00 | 0.00 | 0.00 | 65 | 1006.8 |
| 20260504044505 | 59 | 210 | 0.0 | 0.0 | 0.00 | 0.00 | 0.00 | 65 | 1006.9 |
| 20260504044005 | 59 | 210 | 0.0 | 0.9 | 0.00 | 0.00 | 0.00 | 65 | 1007.0 |
| 20260504043504 | 59 | 210 | 0.9 | 1.7 | 0.00 | 0.00 | 0.00 | 65 | 1007.1 |
| 20260504043005 | 59 | 217 | 1.7 | 1.7 | 0.00 | 0.00 | 0.00 | 65 | 1007.3 |
| 20260504042505 | 60 | 134 | 0.9 | 0.9 | 0.00 | 0.00 | 0.00 | 65 | 1007.3 |
| 20260504042005 | 60 | 134 | 0.0 | 0.0 | 0.00 | 0.00 | 0.00 | 65 | 1007.2 |
| 20260504041504 | 60 | 134 | 0.0 | 0.0 | 0.00 | 0.00 | 0.00 | 64 | 1007.2 |
| 20260504041005 | 60 | 134 | 0.0 | 0.0 | 0.00 | 0.00 | 0.00 | 64 | 1007.3 |
| 20260504040505 | 60 | 134 | 0.0 | 0.0 | 0.00 | 0.00 | 0.00 | 63 | 1007.2 |
| 20260504040005 | 60 | 134 | 0.0 | 0.0 | 0.00 | 0.00 | 0.00 | 62 | 1007.3 |
| 20260504035504 | 61 | 135 | 0.0 | 0.0 | 0.00 | 0.00 | 0.00 | 62 | 1007.4 |
| 20260504035005 | 61 | 134 | 0.0 | 0.0 | 0.00 | 0.00 | 0.00 | 60 | 1007.4 |
| 20260504034505 | 61 | 135 | 0.0 | 0.0 | 0.00 | 0.00 | 0.00 | 60 | 1007.4 |
| 20260504034007 | 61 | 134 | 0.0 | 0.0 | 0.00 | 0.00 | 0.00 | 58 | 1007.4 |
| 20260504033505 | 62 | 134 | 0.0 | 0.0 | 0.00 | 0.00 | 0.00 | 56 | 1007.5 |
| 20260504033008 | 62 | 134 | 0.0 | 0.0 | 0.00 | 0.00 | 0.00 | 57 | 1007.4 |
| 20260504032505 | 62 | 135 | 0.9 | 1.7 | 0.00 | 0.00 | 0.00 | 56 | 1007.5 |
| 20260504032005 | 62 | 112 | 0.0 | 1.7 | 0.00 | 0.00 | 0.00 | 53 | 1007.5 |
| 20260504031504 | 63 | 13 | 0.0 | 0.0 | 0.00 | 0.00 | 0.00 | 51 | 1007.4 |
| 20260504031021 | 63 | 13 | 0.0 | 0.0 | 0.00 | 0.00 | 0.00 | 51 | 1007.5 |
| 20260504030505 | 63 | 13 | 0.0 | 0.0 | 0.00 | 0.00 | 0.00 | 52 | 1007.5 |
| 20260504030009 | 63 | 13 | 0.0 | 0.0 | 0.00 | 0.00 | 0.00 | 51 | 1007.4 |
| 20260504025505 | 63 | 13 | 0.0 | 0.0 | 0.00 | 0.00 | 0.00 | 51 | 1007.4 |
| 20260504025008 | 63 | 13 | 0.0 | 0.0 | 0.00 | 0.00 | 0.00 | 52 | 1007.4 |
| 20260504024505 | 64 | 13 | 0.0 | 0.0 | 0.00 | 0.00 | 0.00 | 51 | 1007.4 |
| 20260504024005 | 64 | 13 | 0.0 | 0.0 | 0.00 | 0.00 | 0.00 | 51 | 1007.4 |
| 20260504023504 | 64 | 13 | 0.0 | 0.0 | 0.00 | 0.00 | 0.00 | 51 | 1007.3 |
| 20260504023005 | 64 | 13 | 0.0 | 0.0 | 0.00 | 0.00 | 0.00 | 50 | 1007.4 |
| 20260504022504 | 64 | 13 | 0.0 | 0.0 | 0.00 | 0.00 | 0.00 | 50 | 1007.4 |
| 20260504022005 | 65 | 13 | 0.0 | 0.0 | 0.00 | 0.00 | 0.00 | 49 | 1007.4 |
| 20260504021504 | 65 | 13 | 0.0 | 0.0 | 0.00 | 0.00 | 0.00 | 48 | 1007.5 |
| 20260504021004 | 65 | 13 | 0.0 | 0.0 | 0.00 | 0.00 | 0.00 | 48 | 1007.5 |
| 20260504020505 | 65 | 13 | 0.0 | 0.0 | 0.00 | 0.00 | 0.00 | 49 | 1007.5 |
| 20260504020004 | 66 | 13 | 0.0 | 0.0 | 0.00 | 0.00 | 0.00 | 48 | 1007.5 |
| 20260504015505 | 66 | 13 | 0.0 | 0.0 | 0.00 | 0.00 | 0.00 | 48 | 1007.5 |
| 20260504015005 | 67 | 13 | 0.0 | 0.0 | 0.00 | 0.00 | 0.00 | 47 | 1007.5 |
| 20260504014504 | 67 | 13 | 0.0 | 0.0 | 0.00 | 0.00 | 0.00 | 46 | 1007.5 |
| 20260504014006 | 67 | 13 | 0.0 | 0.0 | 0.00 | 0.00 | 0.00 | 47 | 1007.4 |
| 20260504013507 | 68 | 13 | 0.0 | 0.0 | 0.00 | 0.00 | 0.00 | 46 | 1007.5 |
| 20260504013005 | 68 | 13 | 0.0 | 0.0 | 0.00 | 0.00 | 0.00 | 45 | 1007.6 |
| 20260504012505 | 69 | 13 | 0.0 | 0.0 | 0.00 | 0.00 | 0.00 | 44 | 1007.6 |
| 20260504012006 | 69 | 13 | 0.0 | 0.0 | 0.00 | 0.00 | 0.00 | 44 | 1007.7 |
| 20260504011519 | 70 | 13 | 0.0 | 0.0 | 0.00 | 0.00 | 0.00 | 44 | 1007.7 |
| 20260504011006 | 70 | 13 | 0.0 | 0.0 | 0.00 | 0.00 | 0.00 | 43 | 1007.6 |
| 20260504010507 | 70 | 13 | 0.0 | 0.0 | 0.00 | 0.00 | 0.00 | 43 | 1007.6 |
| 20260504010016 | 71 | 13 | 0.0 | 0.0 | 0.00 | 0.00 | 0.00 | 42 | 1007.6 |
| 20260504005506 | 71 | 13 | 0.0 | 0.0 | 0.00 | 0.00 | 0.00 | 41 | 1007.5 |
| 20260504005008 | 71 | 13 | 0.0 | 0.0 | 0.00 | 0.00 | 0.00 | 40 | 1007.5 |
| 20260504004505 | 71 | 13 | 0.0 | 0.0 | 0.00 | 0.00 | 0.00 | 41 | 1007.6 |
| 20260504004005 | 72 | 13 | 0.0 | 0.0 | 0.00 | 0.00 | 0.00 | 38 | 1007.6 |
| 20260504003505 | 72 | 13 | 0.0 | 0.0 | 0.00 | 0.00 | 0.00 | 39 | 1007.6 |
| 20260504003005 | 72 | 13 | 0.0 | 0.9 | 0.00 | 0.00 | 0.00 | 38 | 1007.6 |
| 20260504002504 | 72 | 13 | 1.7 | 1.7 | 0.00 | 0.00 | 0.00 | 37 | 1007.7 |
| 20260504002005 | 73 | 344 | 1.7 | 1.7 | 0.00 | 0.00 | 0.00 | 37 | 1007.8 |
| 20260504001504 | 73 | 14 | 1.7 | 2.6 | 0.00 | 0.00 | 0.00 | 36 | 1007.8 |
| 20260504001005 | 73 | 6 | 1.7 | 2.6 | 0.00 | 0.00 | 0.00 | 36 | 1007.8 |
| 20260504000505 | 74 | 336 | 1.7 | 2.6 | 0.00 | 0.00 | 0.00 | 35 | 1007.9 |
| 20260504000005 | 74 | 300 | 2.6 | 2.6 | 0.00 | 0.00 | 0.00 | 35 | 1007.9 |
| 20260503235504 | 74 | 325 | 1.7 | 2.6 | 0.00 | 0.00 | 0.00 | 37 | 1008.0 |
| 20260503235011 | 74 | 312 | 1.7 | 1.7 | 0.00 | 0.00 | 0.00 | 35 | 1008.0 |
| 20260503234505 | 74 | 312 | 1.7 | 5.2 | 0.00 | 0.00 | 0.00 | 35 | 1008.0 |
| 20260503234006 | 74 | 316 | 4.3 | 5.2 | 0.00 | 0.00 | 0.00 | 34 | 1008.2 |
| 20260503233506 | 74 | 302 | 1.7 | 4.3 | 0.00 | 0.00 | 0.00 | 34 | 1008.1 |
| 20260503233005 | 74 | 287 | 1.7 | 4.3 | 0.00 | 0.00 | 0.00 | 34 | 1008.1 |
| 20260503232521 | 75 | 299 | 1.7 | 4.3 | 0.00 | 0.00 | 0.00 | 33 | 1008.1 |
| 20260503232005 | 75 | 248 | 4.3 | 5.2 | 0.00 | 0.00 | 0.00 | 34 | 1008.0 |
| 20260503231504 | 75 | 298 | 1.7 | 1.7 | 0.00 | 0.00 | 0.00 | 33 | 1008.1 |
| 20260503231006 | 76 | 237 | 2.6 | 2.6 | 0.00 | 0.00 | 0.00 | 34 | 1008.2 |
| 20260503230505 | 76 | 307 | 2.6 | 4.3 | 0.00 | 0.00 | 0.00 | 34 | 1008.2 |
| 20260503230016 | 76 | 225 | 2.6 | 4.3 | 0.00 | 0.00 | 0.00 | 34 | 1008.2 |
| 20260503225504 | 76 | 223 | 5.2 | 5.2 | 0.00 | 0.00 | 0.00 | 34 | 1008.2 |
| 20260503225007 | 76 | 230 | 4.3 | 5.2 | 0.00 | 0.00 | 0.00 | 35 | 1008.2 |
| 20260503224504 | 76 | 291 | 4.3 | 5.2 | 0.00 | 0.00 | 0.00 | 32 | 1008.2 |
| 20260503224005 | 76 | 311 | 2.6 | 6.1 | 0.00 | 0.00 | 0.00 | 33 | 1008.3 |
| 20260503223505 | 76 | 291 | 4.3 | 7.8 | 0.00 | 0.00 | 0.00 | 33 | 1008.2 |
| 20260503223005 | 76 | 312 | 2.6 | 7.8 | 0.00 | 0.00 | 0.00 | 34 | 1008.3 |
| 20260503222504 | 76 | 211 | 1.7 | 4.3 | 0.00 | 0.00 | 0.00 | 35 | 1008.2 |
| 20260503222005 | 76 | 311 | 3.5 | 7.8 | 0.00 | 0.00 | 0.00 | 34 | 1008.3 |
| 20260503221505 | 76 | 281 | 2.6 | 7.8 | 0.00 | 0.00 | 0.00 | 34 | 1008.4 |
| 20260503221005 | 75 | 333 | 1.7 | 4.3 | 0.00 | 0.00 | 0.00 | 34 | 1008.3 |
| 20260503220504 | 75 | 307 | 2.6 | 5.2 | 0.00 | 0.00 | 0.00 | 33 | 1008.4 |
| 20260503220005 | 76 | 288 | 2.6 | 5.2 | 0.00 | 0.00 | 0.00 | 35 | 1008.4 |
| 20260503215504 | 76 | 219 | 2.6 | 4.3 | 0.00 | 0.00 | 0.00 | 35 | 1008.4 |
| 20260503215005 | 76 | 229 | 2.6 | 4.3 | 0.00 | 0.00 | 0.00 | 35 | 1008.5 |
| 20260503214504 | 76 | 229 | 4.3 | 6.1 | 0.00 | 0.00 | 0.00 | 35 | 1008.6 |
| 20260503214006 | 75 | 320 | 4.3 | 6.1 | 0.00 | 0.00 | 0.00 | 36 | 1008.6 |
| 20260503213504 | 76 | 310 | 5.2 | 7.8 | 0.00 | 0.00 | 0.00 | 34 | 1008.5 |
| 20260503213006 | 75 | 302 | 1.7 | 6.1 | 0.00 | 0.00 | 0.00 | 35 | 1008.5 |
| 20260503212519 | 75 | 273 | 1.7 | 6.1 | 0.00 | 0.00 | 0.00 | 35 | 1008.4 |
| 20260503212005 | 76 | 305 | 2.6 | 4.3 | 0.00 | 0.00 | 0.00 | 34 | 1008.5 |
| 20260503211518 | 75 | 254 | 3.5 | 4.3 | 0.00 | 0.00 | 0.00 | 34 | 1008.6 |
| 20260503211006 | 75 | 164 | 1.7 | 4.3 | 0.00 | 0.00 | 0.00 | 37 | 1008.5 |
| 20260503210504 | 75 | 227 | 0.9 | 2.6 | 0.00 | 0.00 | 0.00 | 34 | 1008.6 |
| 20260503210005 | 75 | 213 | 5.2 | 7.8 | 0.00 | 0.00 | 0.00 | 34 | 1008.8 |
| 20260503205506 | 75 | 261 | 5.2 | 7.0 | 0.00 | 0.00 | 0.00 | 37 | 1008.8 |
| 20260503205006 | 75 | 260 | 6.1 | 8.7 | 0.00 | 0.00 | 0.00 | 35 | 1008.9 |
| 20260503204504 | 75 | 305 | 5.2 | 7.0 | 0.00 | 0.00 | 0.00 | 35 | 1009.0 |
| 20260503204004 | 75 | 184 | 1.7 | 4.3 | 0.00 | 0.00 | 0.00 | 34 | 1009.0 |
| 20260503203504 | 75 | 224 | 1.7 | 6.1 | 0.00 | 0.00 | 0.00 | 36 | 1009.0 |
| 20260503203004 | 75 | 311 | 6.1 | 8.7 | 0.00 | 0.00 | 0.00 | 37 | 1009.0 |
| 20260503202504 | 75 | 214 | 3.5 | 6.1 | 0.00 | 0.00 | 0.00 | 36 | 1009.1 |
| 20260503202005 | 74 | 236 | 2.6 | 6.1 | 0.00 | 0.00 | 0.00 | 38 | 1009.3 |
| 20260503201504 | 74 | 230 | 2.6 | 4.3 | 0.00 | 0.00 | 0.00 | 36 | 1009.3 |
| 20260503201010 | 74 | 257 | 2.6 | 4.3 | 0.00 | 0.00 | 0.00 | 38 | 1009.3 |
| 20260503200505 | 74 | 211 | 2.6 | 12.2 | 0.00 | 0.00 | 0.00 | 38 | 1009.4 |
| 20260503200004 | 74 | 244 | 2.6 | 12.2 | 0.00 | 0.00 | 0.00 | 40 | 1009.4 |
| 20260503195518 | 74 | 258 | 1.7 | 4.3 | 0.00 | 0.00 | 0.00 | 42 | 1009.5 |
| 20260503195005 | 74 | 225 | 2.6 | 13.0 | 0.00 | 0.00 | 0.00 | 40 | 1009.5 |
| 20260503194504 | 74 | 218 | 4.3 | 6.1 | 0.00 | 0.00 | 0.00 | 40 | 1009.5 |
| 20260503194005 | 74 | 304 | 7.8 | 12.2 | 0.00 | 0.00 | 0.00 | 41 | 1009.6 |
| 20260503193504 | 74 | 258 | 5.2 | 7.0 | 0.00 | 0.00 | 0.00 | 44 | 1009.6 |
| 20260503193021 | 74 | 216 | 7.8 | 11.3 | 0.00 | 0.00 | 0.00 | 42 | 1009.6 |
| 20260503192505 | 74 | 212 | 4.3 | 5.2 | 0.00 | 0.00 | 0.00 | 40 | 1009.6 |